Location: Ariel
(45.9570°N, 122.5700°W)
Time: 17:10:06
(UTC-07:00)

Vanguard 3 - Pass Details

Date: 02 September 2019
Orbit: 508 x 3262 km, 33.3° (Epoch: 18 October)

Event Time Altitude Azimuth Distance (km) Brightness Sun altitude
Rises 17:17:22 0° 259° (W) 6,239 13.1 24.9°
Reaches altitude 10° 17:22:28 10° 253° (WSW) 4,780 13.1 24.1°
Maximum altitude 17:33:13 37° 193° (SSW) 2,177 9.9 22.2°
Drops below altitude 10° 17:39:43 10° 129° (SE) 2,872 9.7 21.1°
Sets 17:42:02 0° 120° (ESE) 3,553 10.0 20.7°
